Starlink 5660

operational
NORAD ID: 55335 Int'l Des: 2023-013 Owner: SPXS Country: US Constellation: starlink
LEOCIRCULAR

About Starlink 5660

Description loading...

Live Position

Loading 3D Globe...

Upcoming Passes

Altitude History

Altitude vs Time

uPlot chart will show altitude changes over time

Two-Line Element Set

1 55335U 23013E 25304.24146871 .00000362 00000-0 41865-4 0 9996
2 55335 43.0084 284.0128 0002079 280.8778 79.1831 15.02534784152236
Epoch: Oct 31, 2025 • Age: 8 hours

Current Status

Altitude 563.2 km
Velocity 7.58 km/s
Sub-Earth Point -22.06°S, 12.15°E
Launch Date Jan 26, 2023
Age 2.7 years
Type internet

Technical Details

Classification Payload
Mass 305.00 kg
Dry Mass 290.00 kg
Total Mass 305.00 kg
Length 0.20 m
Diameter 2.80 m
Span 9.00 m
Shape Box + pan
Manufacturer SPXS
Bus Type Starlink
Phase Status In Orbit
Owner/State SPXS/US

Large Constellations

Loading constellations...